TimeMDT,TemperatureF,Dew PointF,Humidity,Sea Level PressureIn,VisibilityMPH,Wind Direction,Wind SpeedMPH,Gust SpeedMPH,PrecipitationIn,Events,Conditions,WindDirDegrees,DateUTC
12:53 AM,57.0,30.0,36,29.87,-9999.0,West,3.5,-,N/A,,Clear,270,2012-10-02 06:53:00
1:53 AM,64.0,30.0,28,29.85,-9999.0,West,13.8,-,N/A,,Clear,280,2012-10-02 07:53:00
2:53 AM,64.0,30.9,29,29.84,-9999.0,WNW,11.5,-,N/A,,Clear,300,2012-10-02 08:53:00
3:53 AM,63.0,30.9,30,29.83,-9999.0,West,10.4,24.2,N/A,,Clear,270,2012-10-02 09:53:00
4:53 AM,61.0,30.0,31,29.84,-9999.0,NW,9.2,-,N/A,,Clear,320,2012-10-02 10:53:00
5:53 AM,60.1,30.0,32,29.83,10.0,WNW,8.1,-,N/A,,Clear,300,2012-10-02 11:53:00
6:53 AM,59.0,30.9,35,29.85,10.0,West,8.1,-,N/A,,Clear,270,2012-10-02 12:53:00
7:53 AM,59.0,32.0,36,29.86,10.0,WSW,4.6,-,N/A,,Partly Cloudy,250,2012-10-02 13:53:00
8:53 AM,60.1,33.1,36,29.86,10.0,West,9.2,-,N/A,,Clear,260,2012-10-02 14:53:00
9:53 AM,62.1,34.0,35,29.86,10.0,NE,4.6,-,N/A,,Clear,40,2012-10-02 15:53:00
10:53 AM,69.1,35.1,29,29.84,10.0,WSW,15.0,20.7,N/A,,Clear,240,2012-10-02 16:53:00
11:53 AM,71.1,34.0,26,29.82,10.0,West,18.4,-,N/A,,Clear,270,2012-10-02 17:53:00
12:53 PM,72.0,30.9,22,29.80,10.0,West,21.9,29.9,N/A,,Clear,270,2012-10-02 18:53:00
1:53 PM,73.9,30.0,20,29.76,10.0,West,20.7,32.2,N/A,,Clear,270,2012-10-02 19:53:00
2:53 PM,73.9,27.0,18,29.74,10.0,West,17.3,26.5,N/A,,Clear,260,2012-10-02 20:53:00
3:53 PM,73.9,23.0,15,29.73,10.0,WSW,12.7,20.7,N/A,,Clear,250,2012-10-02 21:53:00
4:53 PM,73.0,21.9,15,29.74,10.0,West,10.4,21.9,N/A,,Clear,270,2012-10-02 22:53:00
5:53 PM,70.0,19.9,15,29.75,10.0,WNW,17.3,-,N/A,,Clear,300,2012-10-02 23:53:00
6:53 PM,64.0,24.1,22,29.79,10.0,NNW,9.2,-,N/A,,Clear,330,2012-10-03 00:53:00
7:53 PM,59.0,24.1,26,29.83,10.0,NNW,5.8,-,N/A,,Clear,330,2012-10-03 01:53:00
8:53 PM,52.0,37.0,57,29.90,10.0,North,17.3,24.2,N/A,,Clear,360,2012-10-03 02:53:00
9:53 PM,48.9,37.9,66,29.94,10.0,North,9.2,18.4,N/A,,Clear,360,2012-10-03 03:53:00
10:53 PM,46.9,37.9,71,29.94,10.0,North,9.2,-,N/A,,Clear,360,2012-10-03 04:53:00
11:53 PM,45.0,37.9,76,29.96,10.0,North,12.7,21.9,N/A,,Overcast,350,2012-10-03 05:53:00